Regional Weather Roundup
Issued by NWS Cleveland, OH

Home | Current Version | Previous Version | Graphics & Text | Print | Product List | Glossary On
Versions: 1 2 3 4 5 6 7 8 9 10 11 12 13 14 15 16 17 18 19 20 21 22 23 24 25 26 27 28 29 30 31 32 33 34 35 36 37 38 39 40 41 42 43 44 45 46 47 48 49 50
000
ASUS41 KCLE 300710
RWRCLE
OHIO REGIONAL WEATHER ROUNDUP
NATIONAL WEATHER SERVICE CLEVELAND, OH
300 AM EDT SUN APR 30 2017

NOTE: "FAIR" INDICATES FEW OR NO CLOUDS BELOW 12,000 FEET WITH NO
SIGNIFICANT WEATHER AND/OR OBSTRUCTIONS TO VISIBILITY.

OHZ001>008-015>018-024>027-034-035-043-044-300800-
   NORTHWEST OHIO

CITY           SKY/WX    TMP DP  RH WIND       PRES   REMARKS
DEFIANCE       CLOUDY    42  40  92 E12       30.03F
FINDLAY        CLOUDY    46  42  86 N10       30.04F
TOLEDO EXPRESS CLOUDY    43  43 100 NE10      30.06F
TOLEDO EXEC    LGT RAIN  46  44  93 NE9       30.10F FOG
LIMA           CLOUDY    45  45 100 NE12      30.00F
$$

OHZ009>014-019>023-028>033-038-089-300800-
   NORTHEAST OHIO

CITY           SKY/WX    TMP DP  RH WIND       PRES   REMARKS
CLE-HOPKINS    CLOUDY    50  42  74 NE3       30.06F
CLE-LAKEFRONT  MOCLDY    50  43  77 NE3       30.03F
CUY CO. ARPT   NOT AVBL
LORAIN-ELYRIA  MOCLDY    48  41  76 E6        30.03F
ASHTABULA      PTCLDY    49  44  83 E6        30.09F
AKRON-CANTON   CLOUDY    52  49  89 E12       30.03F FOG
WOOSTER        CLOUDY    50  49  96 E12       30.03F FOG
MANSFIELD      CLOUDY    51  51 100 E13       30.00F FOG
YOUNGSTOWN     CLOUDY    52  50  93 E7        30.07F
$$

OHZ042-051>053-060>062-070>072-077>081-300800-
  SOUTHWEST OHIO

CITY           SKY/WX    TMP DP  RH WIND       PRES   REMARKS
CINC-COVINGTON CLOUDY    70  66  87 SE12      29.91F
CINC-LUNKEN    PTCLDY    67  67 100 SE3       29.92F
HAMILTON       CLOUDY    64  63  96 E8        29.94F
DAYTON         TSTM      51  50  96 NE13      29.98F FOG
WRIGHT-PAT AFB CLOUDY    55  55 100 N3        29.98F
DAYTON GENERAL CLOUDY    58  57  97 NE9       29.96F FOG
WILMINGTON     CLOUDY    61  61 100 SE7       29.96S FOG
$$

OHZ036-037-039>041-045>050-054>059-063>069-073>076-082>088-300800-
  CENTRAL AND SOUTHEAST OHIO

CITY           SKY/WX    TMP DP  RH WIND       PRES   REMARKS
COLUMBUS       CLOUDY    58  57  97 E9        29.98F THUNDER FOG
OSU AIRPORT    LGT RAIN  56  56 100 SE5       29.99S FOG
BOLTON FIELD   FOG       57  57 100 E10       29.99S VSB 3/4
RICKENBACK AFB CLOUDY    58  58 100 SE8       29.99R
NEWARK         CLOUDY    57  56  96 E6        29.99F THUNDER FOG
MARION         CLOUDY    52  49  89 N8        30.02R
LANCASTER      CLOUDY    62  59  90 VRB5      30.02R FOG
ZANESVILLE     CLOUDY    60  57  89 E8        30.01F FOG
NEW PHILLY     NOT AVBL
$$



USA.gov is the U.S. government's official web portal to all federal, state and local government web resources and services.